LogID,LogEntryDate,LogEntryTime,LogEntrySeconds,LogNotes,AFR,STFT,CurrentLTFT,IdleLTFT,CruiseLTFT,Load,O2Sensor2,IPW,AFRMAP,LoadTiming,TimingAdv,KnockSum,RPM,Baro,MAP,Boost,WGDC_Active,MAF,IDC,InVVTtarget,ExVVTtarget,InVVTactual,ExVVTactual,TPS,APP,IAT,WGDCCorr,Speed,Battery,ECT,MAT,MAPCalcs,IMAPCalcs,MAFCalcs,ChosenCalc,Custom
1,2016-05-14,18:36:47.74330,0.0803,,0,1.171875,-3.515625,-3.515625,-0.390625,28.125,0.25376,2.2,14.7,28.125,38,0,2046.875,15.2289627,6.2716485,-8.9573142,0,1.843152,3.75260416666667,15.625,-5.625,14.6875,-5,16.078431372549,16.6941176470588,93.2,0,22.374,14.07936,179.6,96.8,29.6875,0,28.125,28.125,
2,2016-05-14,18:36:47.78330,0.12404,,14.5,1.171875,-3.515625,-3.515625,-0.390625,28.125,0.21472,2.2,14.7,28.125,38,0,2046.875,15.2289627,6.2716485,-8.9573142,0,1.843152,3.75260416666667,15.625,-5.625,14.6875,-5,16.078431372549,16.6941176470588,93.2,0,22.374,14.07936,179.6,96.8,29.6875,0,26.5625,28.125,
3,2016-05-14,18:36:47.82330,0.16929,,14.6,1.171875,-3.515625,-3.515625,-0.390625,28.125,0.1952,2.1,14.7,28.125,38,0,2046.875,15.2289627,6.1751616,-9.0538011,0,1.843152,3.58203125,15.625,-5.625,14.6875,-5,16.078431372549,16.6941176470588,93.2,0,22.374,14.07936,179.6,96.8,29.6875,0,26.5625,26.5625,
4,2016-05-14,18:36:47.88330,0.2292,,14.6,1.7578125,-3.515625,-3.515625,-0.390625,26.5625,0.17568,2.1,14.7,26.5625,38,0,2046.875,15.2289627,6.1751616,-9.0538011,0,1.843152,3.58203125,15,-5.625,14.84375,-5,16.078431372549,16.6941176470588,93.2,0,22.374,14.07936,179.6,96.8,29.6875,0,26.5625,26.5625,
5,2016-05-14,18:36:47.93330,0.27911,,14.5,1.7578125,-3.515625,-3.515625,-0.390625,26.5625,0.17568,2.2,14.7,26.5625,38,0,2039.0625,15.2289627,6.1751616,-9.0538011,0,1.803936,3.73828125,15,-5.625,14.84375,-5,15.6862745098039,16.6941176470588,93.2,0,22.374,14.07936,179.6,96.8,29.6875,0,26.5625,26.5625,
6,2016-05-14,18:36:47.97330,0.31911,,14.5,1.7578125,-3.515625,-3.515625,-0.390625,26.5625,0.15616,2.1,14.7,26.5625,38,0,2039.0625,15.2289627,6.1751616,-9.0538011,0,1.803936,3.568359375,15,-5.625,14.84375,-5,15.6862745098039,16.6941176470588,93.2,0,22.374,14.07936,179.6,96.8,29.6875,0,26.5625,26.5625,
7,2016-05-14,18:36:48.03330,0.37394,,14.5,2.5390625,-3.515625,-3.515625,-0.390625,26.5625,0.15616,2.1,14.7,26.5625,38,0,2046.875,15.2289627,6.1751616,-9.0538011,0,1.823544,3.58203125,15,-5.625,14.84375,-5,15.6862745098039,16.6941176470588,93.2,0,22.374,14.07936,179.6,96.8,29.6875,0,26.5625,26.5625,
8,2016-05-14,18:36:48.06330,0.40104,,14.5,2.5390625,-3.515625,-3.515625,-0.390625,26.5625,0.15616,2.1,14.7,26.5625,38,0,2046.875,15.2289627,6.1751616,-9.0538011,0,1.823544,3.58203125,15,-5.625,14.84375,-4.84375,16.078431372549,16.6941176470588,93.2,0,22.374,14.07936,179.6,96.8,29.6875,0,28.125,26.5625,
9,2016-05-14,18:36:48.10330,0.44093,,14.4,2.5390625,-3.515625,-3.515625,-0.390625,26.5625,0.15616,2.2,14.7,26.5625,38,0,2039.0625,15.2289627,6.1751616,-9.0538011,0,1.823544,3.73828125,15,-5.625,14.84375,-4.84375,16.078431372549,16.6941176470588,93.2,0,22.374,14.07936,179.6,96.8,29.6875,0,26.5625,26.5625,
10,2016-05-14,18:36:48.13330,0.47258,,14.4,2.9296875,-3.515625,-3.515625,-0.390625,26.5625,0.15616,2.2,14.7,26.5625,38,0,2039.0625,15.2289627,6.1751616,-9.0538011,0,1.823544,3.73828125,15,-5.625,14.84375,-4.84375,16.078431372549,16.6941176470588,93.2,0,22.374,14.07936,179.6,96.8,29.6875,0,28.125,26.5625,
11,2016-05-14,18:36:48.16330,0.50854,,14.4,2.9296875,-3.515625,-3.515625,-0.390625,28.125,0.15616,2.2,14.7,28.125,38,0,2039.0625,15.2289627,6.1751616,-9.0538011,0,1.823544,3.73828125,15,-5.625,14.84375,-4.84375,16.078431372549,17.2,93.2,0,22.374,14.07936,179.6,96.8,29.6875,0,28.125,28.125,
12,2016-05-14,18:36:48.22330,0.56236,,14.4,2.9296875,-3.515625,-3.515625,-0.390625,28.125,0.13664,2.1,14.7,28.125,38,0,2039.0625,15.2289627,6.1751616,-9.0538011,0,1.823544,3.568359375,15,-5.625,14.6875,-5,16.078431372549,17.2,93.2,0,22.374,14.15269,179.6,96.8,29.6875,0,26.5625,26.5625,
13,2016-05-14,18:36:48.26330,0.60367,,14.3,2.734375,-3.515625,-3.515625,-0.390625,28.125,0.13664,2.1,14.7,28.125,38,0,2039.0625,15.2289627,6.1751616,-9.0538011,0,1.803936,3.568359375,15,-5.625,14.6875,-5,16.078431372549,17.2,93.2,0,22.374,14.15269,179.6,96.8,29.6875,0,26.5625,26.5625,
14,2016-05-14,18:36:48.29330,0.63324,,14.2,2.734375,-3.515625,-3.515625,-0.390625,28.125,0.13664,2.1,14.7,28.125,38,0,2039.0625,15.2289627,6.1751616,-9.0538011,0,1.803936,3.568359375,15,-5.625,14.6875,-5,16.078431372549,17.7058823529412,93.2,0,22.374,14.15269,179.6,96.8,29.6875,0,28.125,26.5625,
15,2016-05-14,18:36:48.35330,0.69926,,14.2,2.734375,-3.515625,-3.515625,-0.390625,28.125,0.13664,2.1,14.7,28.125,38,0,2031.25,15.2289627,6.3681354,-8.8608273,0,1.882368,3.5546875,15,-5.625,14.6875,-5,16.078431372549,17.7058823529412,93.2,0,22.374,14.15269,179.6,96.8,29.6875,0,29.6875,28.125,
16,2016-05-14,18:36:48.41330,0.75057,,14.2,2.5390625,-3.515625,-3.515625,-0.390625,28.125,0.15616,2.2,14.7,29.6875,38,0,2039.0625,15.2289627,6.3681354,-8.8608273,0,1.882368,3.73828125,15.625,-6.25,14.6875,-4.84375,16.078431372549,17.7058823529412,93.2,0,22.374,14.15269,179.6,96.8,31.25,0,31.25,29.6875,
17,2016-05-14,18:36:48.47330,0.81185,,14.2,2.5390625,-3.515625,-3.515625,-0.390625,29.6875,0.15616,2.3,14.7,29.6875,38,0,2039.0625,15.2289627,6.5611092,-8.6678535,0,1.823544,3.908203125,15.625,-6.25,14.6875,-4.84375,16.4705882352941,17.7058823529412,93.2,0,22.374,14.15269,179.6,96.8,31.25,0,29.6875,29.6875,
18,2016-05-14,18:36:48.51330,0.85291,,14.2,2.5390625,-3.515625,-3.515625,-0.390625,29.6875,0.17568,2.3,14.7,29.6875,38,0,2031.25,15.2289627,6.5611092,-8.6678535,0,1.823544,3.89322916666667,15.625,-6.875,15,-5.3125,16.4705882352941,17.7058823529412,93.2,0,22.374,14.07936,179.6,96.8,31.25,0,31.25,29.6875,
19,2016-05-14,18:36:48.59330,0.9304,,14.2,2.1484375,-0.390625,-3.515625,-0.390625,31.25,0.23424,2.3,14.7,29.6875,38,0,2039.0625,15.2289627,6.754083,-8.4748797,0,1.86276,3.908203125,15.625,-6.875,15,-5.3125,16.4705882352941,17.7058823529412,93.2,0,22.374,14.07936,179.6,96.8,32.8125,0,31.25,29.6875,
20,2016-05-14,18:36:48.65330,0.99025,,14.1,2.1484375,-0.390625,-3.515625,-0.390625,31.25,0.31232,2.3,14.7,31.25,38,0,2039.0625,15.2289627,6.754083,-8.4748797,0,1.86276,3.908203125,15.625,-6.875,15,-5.78125,16.8627450980392,19.7294117647059,93.2,0,22.374,14.07936,179.6,96.8,32.8125,0,34.375,31.25,
21,2016-05-14,18:36:48.71330,1.05402,,14.2,2.1484375,-0.390625,-3.515625,-0.390625,31.25,0.37088,2.4,14.7,31.25,37,0,2031.25,15.2289627,7.0435437,-8.185419,0,1.941192,4.0625,15.625,-6.875,15,-5.78125,16.8627450980392,19.7294117647059,93.2,0,22.374,14.15269,179.6,96.8,32.8125,0,37.5,32.8125,
22,2016-05-14,18:36:48.78330,1.12481,,14.2,1.5625,-0.390625,-3.515625,-0.390625,34.375,0.37088,2.6,14.7,35.9375,37,0,2039.0625,15.2289627,7.0435437,-8.185419,0,1.941192,4.41796875,17.5,-10,15.15625,-6.5625,16.8627450980392,19.7294117647059,93.2,0,22.374,14.15269,179.6,96.8,39.0625,0,43.75,39.0625,
23,2016-05-14,18:36:48.84330,1.18777,,14.3,1.5625,-0.390625,-3.515625,-0.390625,39.0625,0.37088,2.9,14.7,39.0625,36,0,2054.6875,15.2289627,8.3943603,-6.8346024,0,2.05884,4.96549479166667,17.5,-10,15.15625,-6.5625,18.8235294117647,21.2470588235294,93.2,0,22.374,14.15269,179.6,96.8,42.1875,0,43.75,40.625,
24,2016-05-14,18:36:48.91330,1.25146,,14.3,1.5625,-0.390625,-3.515625,-0.390625,42.1875,0.37088,3,14.7,42.1875,35,0,2046.875,15.2289627,8.3943603,-6.8346024,0,2.05884,5.1171875,18.125,-11.25,16.25,-8.59375,18.8235294117647,21.2470588235294,93.2,0,22.374,14.15269,179.6,96.8,43.75,0,45.3125,42.1875,
25,2016-05-14,18:36:48.97330,1.31383,,14.2,0.9765625,-0.390625,-3.515625,-0.390625,42.1875,0.40992,2.9,14.7,42.1875,35,0,2054.6875,15.2289627,8.7803079,-6.4486548,0,2.039232,4.96549479166667,18.125,-11.25,16.25,-8.59375,18.8235294117647,21.2470588235294,93.2,0,22.374,14.15269,179.6,96.8,43.75,0,42.1875,42.1875,
26,2016-05-14,18:36:49.00330,1.34776,,14.2,0.9765625,-0.390625,-3.515625,-0.390625,42.1875,0.488,2.9,14.7,42.1875,35,0,2054.6875,15.2289627,8.7803079,-6.4486548,0,2.039232,4.96549479166667,18.125,-11.875,16.71875,-9.6875,18.8235294117647,21.2470588235294,93.2,0,22.374,14.15269,179.6,96.8,45.3125,0,42.1875,42.1875,
27,2016-05-14,18:36:49.05330,1.39114,,14.2,0.9765625,-0.390625,-3.515625,-0.390625,42.1875,0.54656,2.9,14.7,42.1875,35,0,2062.5,15.2289627,8.7803079,-6.4486548,0,2.000016,4.984375,18.125,-11.875,16.71875,-9.6875,18.8235294117647,21.2470588235294,93.2,0,22.374,14.07936,179.6,96.8,45.3125,0,42.1875,42.1875,
28,2016-05-14,18:36:49.11330,1.45477,,14.2,0.5859375,-0.390625,-3.515625,-0.390625,42.1875,0.72224,2.9,14.7,42.1875,35,0,2062.5,15.2289627,8.7803079,-6.4486548,0,2.000016,4.984375,18.125,-11.875,17.34375,-10.78125,18.8235294117647,21.2470588235294,93.2,0,22.374,14.07936,179.6,96.8,45.3125,0,42.1875,42.1875,
29,2016-05-14,18:36:49.16330,1.50704,,14,0.5859375,-0.390625,-3.515625,-0.390625,42.1875,0.80032,2.8,14.7,42.1875,35,0,2062.5,15.2289627,8.8767948,-6.3521679,0,2.019624,4.8125,18.125,-11.875,17.34375,-10.78125,18.8235294117647,21.2470588235294,93.2,0,22.374,14.07936,179.6,96.8,45.3125,0,43.75,42.1875,
30,2016-05-14,18:36:49.22330,1.56099,,14,0.5859375,-0.390625,-3.515625,-0.390625,42.1875,0.83936,2.8,14.7,42.1875,35,0,2070.3125,15.2289627,8.8767948,-6.3521679,0,2.019624,4.83072916666667,18.125,-11.875,17.5,-11.09375,18.8235294117647,21.2470588235294,93.2,0,22.374,14.22602,179.6,96.8,45.3125,0,40.625,42.1875,
31,2016-05-14,18:36:49.28330,1.62273,,13.8,0.1953125,-0.390625,-3.515625,-0.390625,42.1875,0.89792,2.8,14.7,42.1875,35,0,2078.125,15.2289627,8.7803079,-6.4486548,0,2.000016,4.84895833333333,18.125,-11.875,17.5,-11.09375,18.8235294117647,21.2470588235294,93.2,0,22.374,14.22602,179.6,96.8,45.3125,0,42.1875,42.1875,
32,2016-05-14,18:36:49.49330,1.83869,,13.6,0.1953125,-0.390625,-3.515625,-0.390625,42.1875,0.93696,2.8,14.7,42.1875,35,0,2093.75,15.2289627,8.7803079,-6.4486548,0,2.000016,4.88541666666667,18.125,-11.875,17.5,-11.25,18.8235294117647,21.2470588235294,93.2,0,22.374,14.22602,179.6,96.8,45.3125,0,43.75,42.1875,
33,2016-05-14,18:36:49.54330,1.88896,,13.6,0.1953125,-0.390625,-3.515625,-0.390625,42.1875,0.93696,2.8,14.7,42.1875,35,0,2093.75,15.2289627,8.8767948,-6.3521679,0,2.039232,4.88541666666667,18.125,-11.875,17.5,-11.25,18.8235294117647,21.2470588235294,93.2,0,22.374,14.15269,179.6,96.8,45.3125,0,40.625,42.1875,
34,2016-05-14,18:36:49.59330,1.93633,,13.7,-0.78125,-0.390625,-3.515625,-0.390625,42.1875,0.93696,2.8,14.7,42.1875,35,0,2101.5625,15.2289627,8.8767948,-6.3521679,0,2.039232,4.90364583333333,18.125,-11.875,17.5,-11.25,18.8235294117647,21.2470588235294,93.2,0,22.374,14.15269,179.6,96.8,43.75,0,42.1875,42.1875,
35,2016-05-14,18:36:49.65330,1.99405,,13.7,-0.78125,-0.390625,-3.515625,-0.390625,42.1875,0.93696,2.8,14.7,42.1875,35,0,2101.5625,15.2289627,8.683821,-6.5451417,0,2.019624,4.90364583333333,18.125,-11.875,17.5,-11.25,18.8235294117647,21.2470588235294,93.2,0,22.374,14.15269,179.6,96.8,43.75,0,42.1875,42.1875,
36,2016-05-14,18:36:49.69330,2.03337,,13.8,-0.78125,-0.390625,-3.515625,-0.390625,42.1875,0.93696,2.7,14.7,42.1875,35,0,2101.5625,15.2289627,8.683821,-6.5451417,0,2.019624,4.728515625,18.125,-11.25,17.5,-11.09375,18.8235294117647,21.2470588235294,93.2,0,22.374,14.15269,179.6,96.8,43.75,0,42.1875,42.1875,
37,2016-05-14,18:36:49.75330,2.09755,,13.8,-1.171875,-0.390625,-3.515625,-0.390625,42.1875,0.93696,2.7,14.7,42.1875,35,0,2109.375,15.2289627,8.683821,-6.5451417,0,2.039232,4.74609375,18.125,-11.25,17.5,-11.09375,18.8235294117647,21.2470588235294,93.2,0,22.374,14.15269,179.6,96.8,43.75,0,43.75,42.1875,
38,2016-05-14,18:36:49.78330,2.12829,,13.9,-1.171875,-0.390625,-3.515625,-0.390625,42.1875,0.93696,2.7,14.7,42.1875,35,0,2109.375,15.2289627,8.683821,-6.5451417,0,2.039232,4.74609375,18.125,-11.875,17.5,-11.09375,18.8235294117647,21.2470588235294,93.2,0,22.374,14.15269,179.6,96.8,43.75,0,42.1875,42.1875,
39,2016-05-14,18:36:49.83330,2.17077,,13.9,-1.171875,-0.390625,-3.515625,-0.390625,42.1875,0.93696,2.7,14.7,42.1875,35,0,2117.1875,15.2289627,8.7803079,-6.4486548,0,2.039232,4.763671875,18.125,-11.875,17.5,-11.09375,18.8235294117647,21.2470588235294,93.2,0,22.374,14.07936,179.6,96.8,45.3125,0,43.75,42.1875,
40,2016-05-14,18:36:49.89330,2.23096,,14,-1.7578125,-0.390625,-3.515625,-0.390625,43.75,0.93696,2.8,14.7,42.1875,35,0,2117.1875,15.2289627,8.7803079,-6.4486548,0,2.039232,4.94010416666667,18.125,-11.875,17.65625,-11.25,18.8235294117647,21.2470588235294,93.2,0,22.374,14.07936,179.6,96.8,45.3125,0,42.1875,42.1875,
41,2016-05-14,18:36:49.95330,2.29229,,14,-1.7578125,-0.390625,-3.515625,-0.390625,42.1875,0.93696,2.7,14.7,42.1875,35,0,2117.1875,15.2289627,8.8767948,-6.3521679,0,2.039232,4.763671875,18.125,-11.875,17.65625,-11.25,18.8235294117647,21.2470588235294,93.2,0,22.374,14.07936,179.6,96.8,45.3125,0,43.75,42.1875,
42,2016-05-14,18:36:50.01330,2.35361,,14.1,-1.7578125,-0.390625,-3.515625,-0.390625,43.75,0.91744,2.7,14.7,43.75,36,0,2125,15.2289627,8.8767948,-6.3521679,0,2.039232,4.78125,18.125,-12.5,17.8125,-11.40625,18.8235294117647,21.2470588235294,93.2,0,23.617,14.07936,179.6,96.8,45.3125,0,42.1875,42.1875,
43,2016-05-14,18:36:50.07330,2.41295,,14.1,-2.1484375,-0.390625,-3.515625,-0.390625,43.75,0.91744,2.7,14.7,43.75,36,0,2132.8125,15.2289627,8.8767948,-6.3521679,0,2.05884,4.798828125,18.125,-12.5,17.8125,-11.40625,18.8235294117647,21.2470588235294,93.2,0,23.617,14.07936,179.6,96.8,45.3125,0,42.1875,42.1875,
44,2016-05-14,18:36:50.11330,2.45601,,14.2,-2.1484375,-0.390625,-3.515625,-0.390625,42.1875,0.91744,2.7,14.7,42.1875,36,0,2132.8125,15.2289627,8.8767948,-6.3521679,0,2.05884,4.798828125,18.125,-11.875,17.8125,-11.71875,18.8235294117647,21.2470588235294,93.2,0,23.617,14.07936,179.6,96.8,45.3125,0,42.1875,42.1875,
45,2016-05-14,18:36:50.15330,2.48973,,14.2,-2.1484375,-0.390625,-3.515625,-0.390625,42.1875,0.91744,2.7,14.7,42.1875,36,0,2132.8125,15.2289627,8.8767948,-6.3521679,0,2.019624,4.798828125,18.125,-11.875,17.8125,-11.71875,18.8235294117647,21.2470588235294,93.2,0,23.617,14.15269,179.6,96.8,45.3125,0,43.75,42.1875,
46,2016-05-14,18:36:50.20330,2.54629,,14.2,-2.734375,-0.390625,-3.515625,-0.390625,42.1875,0.89792,2.7,14.7,42.1875,36,0,2140.625,15.2289627,8.8767948,-6.3521679,0,2.019624,4.81640625,18.125,-11.875,17.8125,-11.71875,18.8235294117647,21.2470588235294,93.2,0,23.617,14.15269,179.6,96.8,45.3125,0,43.75,43.75,
47,2016-05-14,18:36:50.25330,2.59594,,14.2,-2.734375,-0.390625,-3.515625,-0.390625,43.75,0.89792,2.7,14.7,43.75,36,0,2148.4375,15.2289627,8.8767948,-6.3521679,0,2.000016,4.833984375,18.125,-11.875,17.8125,-11.71875,19.2156862745098,21.7529411764706,93.2,0,23.617,14.15269,179.6,96.8,45.3125,0,42.1875,43.75,
48,2016-05-14,18:36:50.28330,2.62619,,14.2,-2.734375,-0.390625,-3.515625,-0.390625,43.75,0.89792,2.7,14.7,43.75,36,0,2148.4375,15.2289627,8.8767948,-6.3521679,0,2.000016,4.833984375,18.125,-12.5,17.96875,-11.71875,19.2156862745098,21.7529411764706,93.2,0,23.617,14.07936,179.6,96.8,45.3125,0,43.75,43.75,
49,2016-05-14,18:36:50.34330,2.68164,,14.3,-3.125,-0.390625,-3.515625,-0.390625,43.75,0.8784,2.7,14.7,43.75,36,0,2148.4375,15.2289627,8.9732817,-6.255681,0,2.05884,4.833984375,18.125,-12.5,17.96875,-11.71875,19.2156862745098,21.7529411764706,93.2,0,23.617,14.07936,179.6,96.8,45.3125,0,43.75,43.75,
50,2016-05-14,18:36:50.39330,2.73597,,14.4,-3.125,-0.390625,-3.515625,-0.390625,43.75,0.8784,2.7,14.7,43.75,36,0,2156.25,15.2289627,8.9732817,-6.255681,0,2.05884,4.8515625,18.75,-12.5,17.96875,-11.875,20,22.7647058823529,93.2,0,23.617,14.07936,179.6,96.8,46.875,0,46.875,45.3125,
51,2016-05-14,18:36:50.46330,2.7999,,14.4,-3.125,-0.390625,-3.515625,-0.390625,45.3125,0.83936,2.9,14.7,45.3125,35,0,2156.25,15.2289627,9.3592293,-5.8697334,3.5,2.117664,5.2109375,18.75,-12.5,17.96875,-11.875,20,22.7647058823529,93.2,0,23.617,14.15269,179.6,96.8,48.4375,0,46.875,45.3125,
52,2016-05-14,18:36:50.52330,2.86525,,14.5,-2.734375,-0.390625,-3.515625,-0.390625,45.3125,0.72224,2.9,14.7,45.3125,35,0,2164.0625,15.2289627,9.3592293,-5.8697334,3.5,2.117664,5.22981770833333,18.75,-13.125,18.28125,-11.875,20,22.7647058823529,93.2,0,23.617,14.15269,179.6,96.8,50,0,46.875,45.3125,
53,2016-05-14,18:36:50.58330,2.92719,,14.6,-2.734375,-0.390625,-3.515625,-0.390625,46.875,0.52704,2.9,14.7,46.875,35,0,2171.875,15.2289627,9.4557162,-5.7732465,0,2.039232,5.24869791666667,18.75,-13.125,18.28125,-11.875,19.6078431372549,22.2588235294118,93.2,0,23.617,14.15269,179.6,96.8,48.4375,0,43.75,45.3125,
54,2016-05-14,18:36:50.64330,2.98688,,14.6,-2.734375,-0.390625,-3.515625,-0.390625,45.3125,0.35136,2.9,14.7,45.3125,35,0,2179.6875,15.2289627,9.4557162,-5.7732465,0,2.039232,5.267578125,18.75,-13.125,18.28125,-12.03125,19.6078431372549,22.2588235294118,93.2,0,23.617,14.15269,179.6,96.8,48.4375,0,45.3125,45.3125,
55,2016-05-14,18:36:50.70330,3.04213,,14.7,-1.5625,-0.390625,-3.515625,-0.390625,45.3125,0.25376,3,14.7,45.3125,35,0,2179.6875,15.2289627,9.3592293,-5.8697334,0,2.078448,5.44921875,18.75,-13.125,18.28125,-12.03125,19.6078431372549,22.2588235294118,93.2,0,23.617,14.15269,179.6,96.8,48.4375,0,45.3125,45.3125,
56,2016-05-14,18:36:50.76330,3.10593,,14.7,-1.5625,-0.390625,-3.515625,-0.390625,45.3125,0.21472,3,14.7,45.3125,35,0,2187.5,15.2289627,9.3592293,-5.8697334,0,2.078448,5.46875,18.75,-12.5,18.28125,-12.5,19.6078431372549,22.2588235294118,93.2,0,23.617,14.15269,179.6,96.8,48.4375,0,45.3125,45.3125,
57,2016-05-14,18:36:50.81330,3.15538,,14.6,-1.5625,-0.390625,-3.515625,-0.390625,45.3125,0.1952,3,14.7,45.3125,35,0,2195.3125,15.2289627,9.3592293,-5.8697334,0,2.098056,5.48828125,18.75,-12.5,18.28125,-12.5,19.6078431372549,22.2588235294118,93.2,0,23.617,14.07936,179.6,96.8,48.4375,0,45.3125,45.3125,
58,2016-05-14,18:36:50.87330,3.21434,,14.7,-0.5859375,-0.390625,-3.515625,-0.390625,45.3125,0.17568,3,14.7,45.3125,35,0,2195.3125,15.2289627,9.3592293,-5.8697334,0,2.098056,5.48828125,18.75,-12.5,18.4375,-12.5,19.6078431372549,22.2588235294118,93.2,0,23.617,14.07936,179.6,96.8,48.4375,0,45.3125,45.3125,
59,2016-05-14,18:36:50.91330,3.25833,,14.5,-0.5859375,-0.390625,-3.515625,-0.390625,45.3125,0.17568,3,14.7,45.3125,35,0,2203.125,15.2289627,9.3592293,-5.8697334,0,2.078448,5.5078125,18.75,-12.5,18.4375,-12.5,19.6078431372549,22.2588235294118,93.2,0,23.617,14.07936,179.6,96.8,48.4375,0,45.3125,45.3125,
60,2016-05-14,18:36:50.98330,3.32347,,14.7,-0.5859375,-0.390625,-3.515625,-0.390625,45.3125,0.17568,2.8,14.7,45.3125,35,0,2210.9375,15.2289627,9.3592293,-5.8697334,0,2.078448,5.15885416666667,18.75,-13.125,18.4375,-12.34375,19.6078431372549,22.2588235294118,93.2,0,23.617,14.07936,179.6,96.8,48.4375,0,45.3125,45.3125,
61,2016-05-14,18:36:51.02330,3.36034,,14.3,-0.5859375,-0.390625,-3.515625,-0.390625,45.3125,0.17568,2.9,14.7,45.3125,35,0,2210.9375,15.2289627,9.3592293,-5.8697334,0,2.078448,5.34309895833333,18.75,-13.125,18.4375,-12.34375,19.6078431372549,22.2588235294118,93.2,0,23.617,14.07936,179.6,96.8,48.4375,0,43.75,45.3125,
62,2016-05-14,18:36:51.07330,3.41891,,14.2,-0.5859375,-0.390625,-3.515625,-0.390625,45.3125,0.1952,2.9,14.7,45.3125,35,0,2210.9375,15.2289627,9.3592293,-5.8697334,0,2.078448,5.34309895833333,18.75,-13.125,18.59375,-12.34375,19.6078431372549,22.2588235294118,93.2,0,23.617,14.07936,179.6,96.8,48.4375,0,45.3125,45.3125,
63,2016-05-14,18:36:51.13330,3.46988,,14.1,-0.5859375,-0.390625,-3.515625,-0.390625,45.3125,0.2928,2.9,14.7,45.3125,35,0,2218.75,15.2289627,9.1662555,-6.0627072,0,2.039232,5.36197916666667,18.75,-13.125,18.59375,-12.34375,19.6078431372549,22.2588235294118,93.2,0,23.617,14.15269,179.6,96.8,48.4375,0,42.1875,43.75,
64,2016-05-14,18:36:51.19330,3.53777,,14,-0.9765625,-0.390625,-3.515625,-0.390625,43.75,0.60512,2.8,14.7,43.75,35,0,2226.5625,15.2289627,9.1662555,-6.0627072,0,2.039232,5.1953125,18.75,-13.125,18.59375,-12.5,19.6078431372549,22.2588235294118,93.2,0,23.617,14.15269,179.6,96.8,48.4375,0,45.3125,43.75,
65,2016-05-14,18:36:51.23330,3.57877,,14,-0.9765625,-0.390625,-3.515625,-0.390625,43.75,0.7808,2.8,14.7,43.75,35,0,2226.5625,15.2289627,9.1662555,-6.0627072,0,2.05884,5.1953125,18.75,-13.125,18.59375,-12.5,19.6078431372549,22.7647058823529,93.2,0,23.617,14.15269,179.6,96.8,48.4375,0,42.1875,43.75,
66,2016-05-14,18:36:51.29330,3.63783,,14,-0.9765625,-0.390625,-3.515625,-0.390625,43.75,0.85888,2.8,14.7,43.75,35,0,2234.375,15.2289627,9.1662555,-6.0627072,0,2.05884,5.21354166666667,18.75,-13.125,18.75,-12.65625,19.6078431372549,22.7647058823529,93.2,0,23.617,14.15269,179.6,96.8,48.4375,0,46.875,45.3125,
67,2016-05-14,18:36:51.35330,3.69827,,14,-1.5625,-0.390625,-3.515625,-0.390625,45.3125,0.89792,2.8,14.7,45.3125,35,0,2242.1875,15.2289627,9.2627424,-5.9662203,3.5,2.078448,5.23177083333333,18.75,-13.125,18.75,-12.65625,19.6078431372549,22.7647058823529,93.2,0,23.617,14.15269,179.6,96.8,48.4375,0,45.3125,45.3125,
68,2016-05-14,18:36:51.41330,3.75125,,14.1,-1.5625,-0.390625,-3.515625,-0.390625,45.3125,0.91744,2.9,14.7,45.3125,35,0,2242.1875,15.2289627,9.2627424,-5.9662203,3.5,2.078448,5.41861979166667,18.75,-13.125,18.75,-12.65625,20,22.2588235294118,93.2,0,23.617,14.15269,179.6,96.8,48.4375,0,45.3125,45.3125,
69,2016-05-14,18:36:51.46330,3.80337,,14.2,-1.5625,-0.390625,-3.515625,-0.390625,45.3125,0.91744,2.8,14.7,45.3125,35,0,2250,15.2289627,9.4557162,-5.7732465,3.5,2.098056,5.25,18.75,-13.125,18.75,-12.65625,20,22.2588235294118,93.2,0,24.86,14.15269,179.6,96.8,48.4375,0,46.875,45.3125,
70,2016-05-14,18:36:51.51330,3.85309,,14.2,-2.1484375,-0.390625,-3.515625,-0.390625,45.3125,0.89792,2.8,14.7,45.3125,35,0,2250,15.2289627,9.4557162,-5.7732465,3.5,2.098056,5.25,18.75,-13.125,18.90625,-12.5,20,22.2588235294118,93.2,0,24.86,14.15269,179.6,96.8,50,0,43.75,45.3125,
71,2016-05-14,18:36:51.56330,3.9047,,14.2,-2.1484375,-0.390625,-3.515625,-0.390625,45.3125,0.89792,2.8,14.7,45.3125,35,0,2257.8125,15.2289627,9.2627424,-5.9662203,0,2.098056,5.26822916666667,18.75,-13.125,18.90625,-12.5,19.6078431372549,22.2588235294118,93.2,0,24.86,14.15269,179.6,96.8,48.4375,0,45.3125,45.3125,
72,2016-05-14,18:36:51.61330,3.95051,,14.2,-2.1484375,-0.390625,-3.515625,-0.390625,45.3125,0.8784,2.8,14.7,45.3125,35,0,2257.8125,15.2289627,9.2627424,-5.9662203,0,2.098056,5.26822916666667,18.75,-13.125,18.90625,-12.65625,19.6078431372549,22.2588235294118,93.2,0,24.86,14.07936,179.6,96.8,48.4375,0,43.75,45.3125,
73,2016-05-14,18:36:51.66330,4.00013,,14.3,-2.34375,-0.390625,-3.515625,-0.390625,45.3125,0.85888,2.9,14.7,45.3125,35,0,2257.8125,15.2289627,9.2627424,-5.9662203,0,2.078448,5.45638020833333,18.75,-13.125,18.90625,-12.65625,19.6078431372549,22.2588235294118,93.2,0,24.86,14.07936,179.6,96.8,48.4375,0,43.75,45.3125,
74,2016-05-14,18:36:51.71330,4.05803,,14.4,-2.34375,-0.390625,-3.515625,-0.390625,45.3125,0.83936,2.9,14.7,45.3125,35,0,2273.4375,15.2289627,9.2627424,-5.9662203,0,2.078448,5.494140625,18.75,-13.125,19.0625,-12.65625,19.6078431372549,22.2588235294118,93.2,0,24.86,14.07936,179.6,96.8,48.4375,0,43.75,43.75,
75,2016-05-14,18:36:51.76330,4.10298,,14.5,-2.34375,-0.390625,-3.515625,-0.390625,45.3125,0.76128,2.9,14.7,45.3125,35,0,2273.4375,15.2289627,9.1662555,-6.0627072,0,2.137272,5.494140625,18.75,-13.125,19.0625,-12.65625,19.6078431372549,22.2588235294118,93.2,0,24.86,14.15269,179.6,96.8,48.4375,0,43.75,45.3125,
76,2016-05-14,18:36:51.82330,4.16021,,14.6,-1.5625,-0.390625,-3.515625,-0.390625,45.3125,0.60512,2.9,14.7,45.3125,35,0,2273.4375,15.2289627,9.1662555,-6.0627072,0,2.137272,5.494140625,18.75,-13.125,19.21875,-12.5,19.6078431372549,22.2588235294118,93.2,0,24.86,14.15269,179.6,96.8,48.4375,0,43.75,43.75,
77,2016-05-14,18:36:51.87330,4.21208,,14.6,-1.5625,-0.390625,-3.515625,-0.390625,43.75,0.46848,2.9,14.7,43.75,35,0,2281.25,15.2289627,9.1662555,-6.0627072,0,2.098056,5.51302083333333,18.75,-13.125,19.21875,-12.5,19.6078431372549,22.2588235294118,93.2,0,24.86,14.15269,179.6,96.8,46.875,0,43.75,43.75,